THOR ABLESTAR DEB, 336

Orbit data source: Space-Track

THOR ABLESTAR DEB, 336 is space debris in LEO originally from a launch on Thu, 29 Jun 1961 UTC launched from the Air Force Eastern Test Range (AFETR). Debris objects in space refer to the collection of defunct objects orbiting the Earth. Examples of debris include non-operational satellites, rocket bodies, and fragments generated from explosions, collisions, or faulty payload assembly.

Loading next visibility...
Identifier
336, 1961-015DN
Orbit
LEO
Country
Flag of USUS
Related business
Manufacturer
Unknown
Mission
Spacecraft
Bus & Motor
Unknown
Mass
Unknown
Launch date (UTC)
1961-06-29 (64 years ago)
Launch vehicle
Unknown
Launch site
Air Force Eastern Test Range (AFETR)
Object type
Payload
Rocket body
Debris
Shape & HBR
Unknown shape, 0.1 m
Radar Cross Section
Small (<0.1 m²)

Expand to show TLE details & history
Last TLE update: 5 hours ago

TLE from 5 hours ago
0 THOR ABLESTAR DEB
1   336U 61015DN  25318.78188375  .00000255  00000-0  36683-3 0  9992
2   336  67.0308 334.0616 0083677 287.7255 251.6863 13.69142305209846
Epoch: 2025-11-14T18:45Z
TLE epoch observation values (Epoch: 2025-11-14T18:45:54.756Z)
Latitude
1.28608°
Longitude
177.92063°
Altitude
1,024.438 km
Speed
7.33 km/s
True Right ascension
10h 14m 04s
True Declination
1° 16' 43"
Sunlit
Object was in daylight at epoch
Visualization orbit readout
Latitude
Unknown
Longitude
Unknown
Altitude
Unknown
Speed
Unknown
Apparent Right ascension
Unknown
Apparent Declination
Unknown
Sunlit
N/A
Visualization observer readout
Local Sidereal Time
20:30:35
Azimuth
Unknown
Elevation
Unknown
Doppler factor
Unknown
Orbital elements
Apogee altitude
1,062.783 km
Perigee altitude
939.289 km
Semi-major axis
7,379.173 km
Eccentricity
0.00837
Inclination
67.0308°
RAAN
334.0616°
Arg. of periapsis
287.7255°
True anomaly
250.77902°
Mean anomaly
251.6863°
Eccentric anomaly
251.23236°
Mean motion
3.42398 °/min
Orbital period
105.14 mins
BSTAR
0.00036683

Documentation

Showing up to 5 results
|